"startDT [UTC]","vpos","CH4 [ppm]","stdev(CH4) [ppm]","CO2 [ppm]","stdev(CO2) [ppm]","H2O [ppm]","stdev(H2O)","p_LGR [torr]","T_LGR [C]","mt1_LGR [us]","mt2_LGR [us]","T_ECpre [C]","T_EC1 [C]","T_EC2 [C]","p_inlet [hPa]","p_in [hPa]","p_out [hPa]","T_inlet [C]","RH_inlet [%]","dwpt_inlet [C]","T_vent [C]","RH_vent [%]","dwpt_vent [C]","flow_vent [l min-1]","flow_inlet [l min-1]","dwpt_sample [C]","T_room [C]"
2012-04-06 00:00:00,0.0,1.9043,0.0011,402.32,0.19,53.2,39.3,138.10,28.29,24.62,36.33,0.04,-272.73,-272.74,-50,554,-929,22.6,2.8,-25.6,22.8,2.9,-25.1,5.73,2.41,-27.6,28.1
2012-04-06 00:01:00,0.0,1.9046,0.0009,402.41,0.23,57.5,43.6,138.10,28.30,24.61,36.32,0.04,-272.74,-272.74,-51,554,-929,22.7,2.8,-25.5,22.8,2.9,-25.0,5.73,2.29,-27.6,28.1
2012-04-06 00:02:00,0.0,1.9049,0.0008,402.37,0.25,62.9,38.5,138.10,28.31,24.61,36.32,0.04,-272.73,-272.74,-51,554,-929,22.7,2.8,-25.4,22.9,2.9,-24.9,5.73,2.42,-27.6,28.2
2012-04-06 00:03:00,0.0,1.9045,0.0010,402.21,0.20,51.6,33.3,138.10,28.32,24.62,36.33,0.04,-272.73,-272.73,-50,554,-929,22.7,2.8,-25.3,22.9,2.9,-24.8,5.73,2.42,-27.5,28.2
2012-04-06 00:04:00,0.0,1.9045,0.0012,402.16,0.20,52.2,39.3,138.10,28.32,24.61,36.33,0.04,-272.74,-272.74,-51,554,-929,22.8,2.8,-25.3,22.9,2.9,-24.8,5.73,2.28,-27.5,28.3
2012-04-06 00:05:00,0.0,1.9047,0.0011,402.24,0.24,56.1,37.0,138.10,28.33,24.61,36.33,0.04,-272.73,-272.74,-50,554,-929,22.8,2.9,-25.1,23.0,3.0,-24.6,5.73,2.43,-27.5,28.3
2012-04-06 00:06:00,0.0,1.9047,0.0011,402.39,0.25,63.1,38.1,138.10,28.34,24.61,36.33,0.04,-272.74,-272.74,-51,555,-929,22.8,2.9,-25.0,23.0,3.0,-24.6,5.73,2.39,-27.5,28.0
2012-04-06 00:07:00,0.0,1.9046,0.0011,402.41,0.20,58.7,34.2,138.11,28.35,24.61,36.33,0.04,-272.74,-272.74,-50,555,-929,22.8,2.9,-25.0,23.0,3.0,-24.5,5.73,2.39,-27.6,27.3
2012-04-06 00:08:00,0.0,1.9043,0.0009,402.47,0.19,39.6,34.4,138.11,28.35,24.62,36.33,0.04,-272.74,-272.74,-51,555,-929,22.8,2.9,-24.9,22.9,3.0,-24.4,5.73,2.30,-27.8,26.8
2012-04-06 00:09:00,0.0,1.9048,0.0010,402.52,0.22,29.9,27.6,138.12,28.34,24.61,36.32,0.04,-272.74,-272.74,-51,555,-929,22.7,2.9,-25.0,22.9,3.0,-24.5,5.73,2.39,-28.0,26.2
2012-04-06 00:10:00,0.0,1.9051,0.0012,402.53,0.21,18.0,25.4,138.13,28.33,24.62,36.32,0.04,-272.74,-272.74,-51,555,-929,22.7,2.9,-25.0,22.8,3.0,-24.6,5.73,2.44,-28.2,26.0
2012-04-06 00:11:00,0.0,1.9065,0.0012,402.66,0.24,12.7,20.2,138.13,28.31,24.62,36.32,0.04,-272.73,-272.74,-51,555,-929,22.7,2.9,-25.1,22.7,3.0,-24.7,5.73,2.44,-28.4,25.8
2012-04-06 00:12:00,0.0,1.9095,0.0011,402.83,0.22,7.6,19.2,138.14,28.29,24.61,36.32,0.04,-272.73,-272.74,-51,554,-929,22.6,2.9,-25.2,22.6,3.0,-24.8,5.73,2.41,-28.5,25.6
2012-04-06 00:13:00,0.0,1.9081,0.0013,402.73,0.26,5.7,12.7,138.14,28.27,24.61,36.32,0.04,-272.74,-272.74,-52,554,-930,22.5,2.9,-25.2,22.5,3.0,-24.8,5.73,2.39,-28.7,25.4
2012-04-06 00:14:00,0.0,1.9073,0.0010,402.64,0.24,4.7,15.9,138.15,28.24,24.61,36.32,0.04,-272.74,-272.74,-52,554,-929,22.5,2.9,-25.1,22.5,3.0,-24.8,5.73,2.38,-28.9,25.2
2012-04-06 00:15:00,0.0,1.9066,0.0011,402.65,0.27,2.0,10.6,138.15,28.21,24.61,36.31,0.04,-272.74,-272.73,-51,553,-929,22.4,2.9,-25.2,22.4,3.0,-24.8,5.73,2.32,-28.9,25.7
2012-04-06 00:16:00,0.0,1.9069,0.0011,402.59,0.20,1.7,8.4,138.15,28.18,24.61,36.31,0.04,-272.74,-272.74,-51,553,-929,22.4,2.9,-25.1,22.4,3.0,-24.7,5.73,2.32,-28.9,26.1
2012-04-06 00:17:00,0.0,1.9070,0.0009,402.61,0.23,1.1,6.1,138.15,28.16,24.61,36.31,0.04,-272.74,-272.74,-52,552,-929,22.3,3.0,-25.0,22.4,3.1,-24.7,5.73,2.50,-28.9,26.5
2012-04-06 00:18:00,0.0,1.9065,0.0008,402.52,0.20,6.2,17.2,138.14,28.15,24.61,36.32,0.04,-272.74,-272.73,-51,552,-929,22.3,3.0,-25.0,22.4,3.1,-24.7,5.73,2.27,-28.8,26.7
2012-04-06 00:19:00,0.0,1.9071,0.0008,402.54,0.21,3.9,14.5,138.14,28.14,24.61,36.31,0.04,-272.74,-272.73,-51,552,-929,22.3,3.0,-25.0,22.4,3.1,-24.6,5.73,2.48,-28.7,26.9
2012-04-06 00:20:00,0.0,1.9080,0.0010,403.17,0.37,5.4,13.9,138.14,28.13,24.61,36.31,0.04,-272.74,-272.73,-51,553,-928,22.3,3.0,-25.0,22.4,3.1,-24.6,5.73,2.31,-28.6,27.0
2012-04-06 00:21:00,0.0,1.9066,0.0015,403.34,0.25,8.2,20.3,138.13,28.13,24.61,36.32,0.04,-272.73,-272.74,-51,552,-928,22.3,3.0,-24.9,22.5,3.1,-24.5,5.73,2.40,-28.5,27.1
2012-04-06 00:22:00,0.0,1.9055,0.0010,403.08,0.21,12.0,23.6,138.13,28.13,24.61,36.31,0.04,-272.74,-272.73,-51,553,-927,22.3,3.0,-24.8,22.5,3.1,-24.4,5.73,2.42,-28.4,27.2
2012-04-06 00:23:00,0.0,1.9060,0.0010,403.09,0.18,13.9,24.1,138.13,28.13,24.61,36.32,0.04,-272.73,-272.74,-51,552,-928,22.3,3.0,-24.8,22.5,3.1,-24.3,5.73,2.29,-28.3,27.2
2012-04-06 00:24:00,0.0,1.9075,0.0010,402.70,0.28,13.8,20.3,138.13,28.13,24.61,36.32,0.04,-272.74,-272.74,-51,552,-928,22.3,3.0,-25.0,22.5,3.1,-24.5,5.73,2.48,-28.3,27.3
2012-04-06 00:25:00,0.0,1.9084,0.0013,403.27,0.30,23.8,24.6,138.12,28.13,24.61,36.31,0.04,-272.73,-272.74,-51,552,-928,22.3,2.9,-25.2,22.5,3.0,-24.7,5.73,2.33,-28.2,27.3
2012-04-06 00:26:00,0.0,1.9090,0.0012,403.12,0.21,15.6,23.4,138.12,28.14,24.61,36.32,0.04,-272.74,-272.73,-51,552,-928,22.3,2.9,-25.4,22.5,3.0,-24.9,5.73,2.36,-28.1,27.3
2012-04-06 00:27:00,0.0,1.9092,0.0011,402.96,0.19,22.4,26.2,138.12,28.15,24.61,36.32,0.04,-272.74,-272.74,-51,552,-928,22.4,2.8,-25.5,22.5,2.9,-25.1,5.73,2.46,-28.1,27.3
2012-04-06 00:28:00,0.0,1.9082,0.0013,402.99,0.20,28.7,31.1,138.12,28.15,24.61,36.32,0.04,-272.73,-272.74,-51,551,-928,22.4,2.8,-25.7,22.5,2.9,-25.2,5.73,2.28,-28.0,27.4
2012-04-06 00:29:00,0.0,1.9075,0.0010,403.00,0.22,23.2,29.2,138.12,28.16,24.61,36.31,0.04,-272.73,-272.74,-51,552,-928,22.4,2.8,-25.7,22.5,2.9,-25.3,5.73,2.45,-28.0,27.4
2012-04-06 00:30:00,0.0,1.9081,0.0010,402.99,0.19,33.3,33.3,138.12,28.17,24.61,36.31,0.04,-272.74,-272.73,-51,552,-928,22.4,2.8,-25.8,22.6,2.8,-25.3,5.73,2.38,-27.9,27.4
2012-04-06 00:31:00,0.0,1.9093,0.0010,402.79,0.22,37.3,36.4,138.12,28.18,24.61,36.32,0.04,-272.74,-272.74,-50,552,-928,22.4,2.8,-25.7,22.6,2.9,-25.2,5.73,2.31,-27.9,27.3
2012-04-06 00:32:00,0.0,1.9090,0.0011,403.02,0.20,39.8,31.7,138.12,28.18,24.61,36.32,0.04,-272.73,-272.73,-51,552,-928,22.4,2.8,-25.5,22.6,2.9,-25.1,5.73,2.48,-27.8,27.3
2012-04-06 00:33:00,0.0,1.9085,0.0010,403.12,0.22,47.8,39.9,138.12,28.19,24.61,36.32,0.04,-272.73,-272.74,-51,552,-928,22.4,2.8,-25.5,22.6,2.9,-25.0,5.73,2.31,-27.8,27.3
2012-04-06 00:34:00,0.0,1.9083,0.0010,403.21,0.20,50.0,36.6,138.11,28.20,24.61,36.32,0.04,-272.74,-272.74,-52,553,-927,22.4,2.8,-25.4,22.7,2.9,-25.0,5.73,2.37,-27.7,27.4
2012-04-06 00:35:00,0.0,1.9085,0.0012,403.25,0.23,47.4,39.8,138.11,28.21,24.61,36.32,0.04,-272.74,-272.74,-52,553,-928,22.4,2.9,-25.4,22.7,2.9,-24.9,5.73,2.46,-27.7,27.4
2012-04-06 00:36:00,0.0,1.9085,0.0010,402.87,0.38,39.3,31.5,138.11,28.22,24.61,36.32,0.04,-272.73,-272.73,-51,552,-928,22.5,2.9,-25.4,22.7,3.0,-24.9,5.73,2.28,-27.6,27.6
2012-04-06 00:37:00,0.0,1.9089,0.0012,402.41,0.24,58.7,36.7,138.11,28.22,24.61,36.32,0.04,-272.74,-272.74,-51,552,-928,22.5,2.9,-25.3,22.7,3.0,-24.8,5.73,2.43,-27.5,27.6
2012-04-06 00:38:00,0.0,1.9091,0.0011,402.32,0.22,64.5,44.5,138.11,28.23,24.61,36.33,0.04,-272.74,-272.74,-50,553,-928,22.5,2.9,-25.3,22.7,3.0,-24.9,5.73,2.40,-27.5,27.7
2012-04-06 00:39:00,0.0,1.9090,0.0009,402.33,0.24,56.8,38.7,138.11,28.24,24.61,36.33,0.04,-272.73,-272.73,-51,553,-928,22.5,2.9,-25.3,22.7,2.9,-24.9,5.73,2.29,-27.5,27.7
2012-04-06 00:40:00,0.0,1.9087,0.0010,402.38,0.22,72.7,35.1,138.11,28.25,24.61,36.32,0.04,-272.73,-272.74,-50,553,-928,22.6,2.9,-25.2,22.7,3.0,-24.7,5.73,2.47,-27.4,27.7
2012-04-06 00:41:00,0.0,1.9091,0.0011,402.47,0.23,61.6,41.5,138.11,28.26,24.61,36.32,0.04,-272.74,-272.74,-51,553,-928,22.6,2.9,-25.2,22.8,3.0,-24.7,5.73,2.34,-27.4,27.8
2012-04-06 00:42:00,0.0,1.9090,0.0012,402.43,0.25,60.0,34.5,138.11,28.26,24.61,36.32,0.04,-272.73,-272.74,-51,553,-928,22.6,2.9,-25.2,22.8,3.0,-24.7,5.73,2.33,-27.3,27.8
2012-04-06 00:43:00,0.0,1.9091,0.0010,402.32,0.25,67.4,35.5,138.11,28.27,24.61,36.33,0.04,-272.73,-272.74,-50,553,-928,22.6,2.9,-25.1,22.8,3.0,-24.6,5.73,2.47,-27.3,27.9
2012-04-06 00:44:00,0.0,1.9095,0.0010,402.31,0.22,71.7,36.3,138.11,28.28,24.61,36.32,0.04,-272.74,-272.74,-51,553,-928,22.7,2.9,-25.1,22.9,3.0,-24.5,5.73,2.32,-27.2,27.9
2012-04-06 00:45:00,0.0,1.9091,0.0011,402.39,0.20,75.3,38.0,138.10,28.29,24.62,36.32,0.04,-272.74,-272.74,-50,554,-928,22.7,2.9,-25.0,22.9,3.0,-24.5,5.73,2.35,-27.2,28.0
2012-04-06 00:46:00,0.0,1.9089,0.0011,402.31,0.18,65.2,40.4,138.10,28.30,24.61,36.33,0.04,-272.74,-272.74,-51,554,-928,22.7,2.9,-25.0,22.9,3.0,-24.4,5.73,2.46,-27.1,28.0
2012-04-06 00:47:00,0.0,1.9096,0.0010,402.28,0.22,73.3,40.6,138.10,28.31,24.61,36.33,0.04,-272.74,-272.74,-51,554,-928,22.7,2.9,-25.0,22.9,3.0,-24.4,5.73,2.31,-27.1,28.0
2012-04-06 00:48:00,0.0,1.9103,0.0011,402.32,0.21,80.2,35.1,138.10,28.32,24.61,36.33,0.04,-272.74,-272.73,-50,554,-928,22.8,2.9,-24.9,22.9,3.0,-24.4,5.73,2.36,-27.1,28.1
2012-04-06 00:49:00,0.0,1.9097,0.0010,402.34,0.22,76.7,40.5,138.10,28.33,24.62,36.32,0.04,-272.73,-272.74,-51,554,-929,22.8,2.9,-25.0,23.0,3.0,-24.5,5.73,2.46,-27.0,28.1
2012-04-06 00:50:00,0.0,1.9092,0.0010,402.45,0.21,84.4,45.7,138.10,28.34,24.62,36.33,0.04,-272.73,-272.73,-50,554,-929,22.8,2.9,-25.0,23.0,3.0,-24.5,5.73,2.30,-27.0,28.2
2012-04-06 00:51:00,0.0,1.9093,0.0011,402.43,0.22,88.0,34.7,138.10,28.35,24.62,36.33,0.04,-272.74,-272.74,-51,554,-928,22.9,2.9,-25.0,23.0,3.0,-24.6,5.73,2.37,-26.9,28.2
2012-04-06 00:52:00,0.0,1.9097,0.0012,402.41,0.25,85.1,37.2,138.10,28.36,24.61,36.33,0.04,-272.73,-272.74,-51,554,-929,22.9,2.8,-25.1,23.0,3.0,-24.6,5.73,2.45,-26.9,27.8
2012-04-06 00:53:00,0.0,1.9104,0.0012,402.35,0.22,75.9,40.9,138.11,28.36,24.61,36.33,0.04,-272.74,-272.73,-51,555,-929,22.9,2.8,-25.3,23.0,2.9,-24.8,5.73,2.36,-27.1,27.2
2012-04-06 00:54:00,0.0,1.9102,0.0010,402.39,0.16,58.6,36.1,138.11,28.36,24.61,36.32,0.04,-272.74,-272.74,-51,555,-929,22.8,2.8,-25.5,22.9,2.9,-25.0,5.73,2.30,-27.2,26.7
2012-04-06 00:55:00,0.0,1.9094,0.0012,402.42,0.21,52.1,40.8,138.12,28.35,24.62,36.32,0.04,-272.74,-272.74,-51,555,-929,22.8,2.7,-25.6,22.9,2.8,-25.2,5.73,2.40,-27.4,26.2
2012-04-06 00:56:00,0.0,1.9100,0.0013,402.50,0.20,40.2,36.0,138.12,28.34,24.61,36.32,0.04,-272.73,-272.74,-51,555,-929,22.8,2.7,-25.7,22.8,2.8,-25.3,5.73,2.44,-27.6,26.0
2012-04-06 00:57:00,0.0,1.9094,0.0011,402.52,0.21,39.4,33.7,138.13,28.32,24.61,36.32,0.04,-272.74,-272.74,-51,555,-929,22.7,2.7,-25.9,22.8,2.8,-25.5,5.73,2.44,-27.8,25.9
2012-04-06 00:58:00,0.0,1.9091,0.0012,402.51,0.22,21.1,27.2,138.13,28.30,24.61,36.32,0.04,-272.74,-272.74,-51,554,-929,22.7,2.7,-26.0,22.7,2.8,-25.6,5.73,2.41,-27.9,25.7
2012-04-06 00:59:00,0.0,1.9083,0.0012,402.54,0.22,12.2,21.8,138.14,28.28,24.61,36.32,0.04,-272.74,-272.74,-51,554,-929,22.6,2.7,-26.0,22.6,2.8,-25.7,5.73,2.39,-28.1,25.5
2012-04-06 01:00:00,0.0,1.9080,0.0009,402.56,0.23,9.8,20.0,138.15,28.25,24.61,36.31,0.04,-272.74,-272.74,-52,553,-929,22.6,2.7,-26.1,22.5,2.8,-25.7,5.73,2.37,-28.2,25.4
2012-04-06 01:01:00,0.0,1.9068,0.0010,402.46,0.18,6.2,16.4,138.15,28.22,24.61,36.31,0.04,-272.74,-272.74,-52,553,-929,22.5,2.7,-26.1,22.5,2.8,-25.7,5.73,2.31,-28.3,25.7
2012-04-06 01:02:00,0.0,1.9064,0.0010,402.56,0.21,4.7,14.0,138.15,28.20,24.61,36.31,0.04,-272.74,-272.74,-52,553,-929,22.5,2.7,-26.0,22.5,2.8,-25.6,5.73,2.34,-28.3,26.2
2012-04-06 01:03:00,0.0,1.9066,0.0009,402.48,0.24,7.3,19.5,138.14,28.18,24.61,36.31,0.04,-272.74,-272.74,-52,553,-929,22.5,2.7,-25.9,22.5,2.8,-25.5,5.73,2.49,-28.2,26.5
2012-04-06 01:04:00,0.0,1.9066,0.0010,402.55,0.19,8.3,19.5,138.14,28.17,24.61,36.31,0.04,-272.74,-272.74,-51,553,-928,22.5,2.8,-25.7,22.5,2.9,-25.4,5.73,2.27,-28.2,26.8
2012-04-06 01:05:00,0.0,1.9074,0.0011,402.54,0.23,12.4,22.3,138.14,28.16,24.61,36.31,0.04,-272.73,-272.74,-52,553,-928,22.5,2.8,-25.7,22.5,2.9,-25.3,5.73,2.47,-28.1,26.9
2012-04-06 01:06:00,0.0,1.9075,0.0012,402.55,0.27,14.9,22.2,138.13,28.15,24.61,36.31,0.04,-272.73,-272.74,-51,552,-928,22.5,2.8,-25.5,22.5,2.9,-25.1,5.73,2.33,-28.0,27.0
2012-04-06 01:07:00,0.0,1.9077,0.0009,402.53,0.22,20.0,28.3,138.13,28.15,24.61,36.31,0.04,-272.74,-272.74,-51,553,-928,22.5,2.8,-25.4,22.5,2.9,-25.0,5.73,2.37,-27.9,27.1
2012-04-06 01:08:00,0.0,1.9079,0.0011,402.37,0.21,19.6,28.2,138.13,28.16,24.61,36.32,0.04,-272.74,-272.74,-51,551,-928,22.5,2.9,-25.3,22.6,3.0,-24.9,5.73,2.45,-27.8,27.2
2012-04-06 01:09:00,0.0,1.9085,0.0011,402.34,0.21,24.8,31.5,138.13,28.16,24.61,36.31,0.04,-272.73,-272.74,-48,552,-928,22.5,2.9,-25.2,22.6,3.0,-24.8,5.73,2.28,-27.8,27.3
2012-04-06 01:10:00,0.0,1.9082,0.0011,402.21,0.20,30.4,29.0,138.12,28.16,24.61,36.32,0.04,-272.74,-272.74,-52,552,-929,22.5,2.9,-25.2,22.6,3.0,-24.8,5.73,2.46,-27.6,27.3
2012-04-06 01:11:00,0.0,1.9078,0.0010,402.44,0.23,34.7,30.9,138.12,28.17,24.61,36.31,0.04,-272.74,-272.74,-51,552,-928,22.5,2.9,-25.1,22.6,3.0,-24.7,5.73,2.37,-27.6,27.4
2012-04-06 01:12:00,0.0,1.9086,0.0012,402.35,0.24,39.7,37.8,138.12,28.18,24.61,36.31,0.04,-272.74,-272.73,-52,552,-928,22.5,2.9,-25.1,22.6,3.0,-24.7,5.73,2.32,-27.5,27.4
2012-04-06 01:13:00,0.0,1.9085,0.0012,402.30,0.21,44.8,37.3,138.12,28.19,24.61,36.32,0.04,-272.73,-272.74,-51,552,-928,22.5,2.9,-25.1,22.7,3.0,-24.6,5.73,2.47,-27.5,27.4
2012-04-06 01:14:00,0.0,1.9080,0.0012,402.38,0.20,50.7,34.2,138.12,28.19,24.61,36.31,0.04,-272.74,-272.74,-51,552,-928,22.5,2.9,-25.1,22.7,3.0,-24.6,5.73,2.32,-27.4,27.5
2012-04-06 01:15:00,0.0,1.9083,0.0010,402.30,0.23,52.4,37.9,138.12,28.20,24.61,36.32,0.04,-272.73,-272.74,-51,552,-928,22.6,2.9,-25.0,22.7,3.0,-24.5,5.73,2.36,-27.4,27.5
2012-04-06 01:16:00,0.0,1.9083,0.0009,402.39,0.22,56.6,45.0,138.12,28.21,24.61,36.31,0.04,-272.74,-272.73,-52,553,-929,22.6,2.9,-25.0,22.7,3.0,-24.5,5.73,2.46,-27.3,27.5
2012-04-06 01:17:00,0.0,1.9085,0.0010,402.38,0.23,52.7,35.2,138.11,28.22,24.61,36.32,0.04,-272.74,-272.74,-49,551,-928,22.6,3.0,-24.9,22.7,3.1,-24.4,5.73,2.29,-27.2,27.6
2012-04-06 01:18:00,0.0,1.9084,0.0011,402.44,0.23,64.1,39.9,138.11,28.23,24.61,36.31,0.04,-272.74,-272.74,-51,553,-928,22.6,3.0,-24.8,22.8,3.1,-24.4,5.73,2.39,-27.2,27.5
2012-04-06 01:19:00,0.0,1.9085,0.0010,402.32,0.21,70.5,34.3,138.11,28.24,24.61,36.32,0.04,-272.73,-272.74,-51,553,-928,22.7,3.0,-24.8,22.8,3.1,-24.3,5.73,2.44,-27.1,27.6
2012-04-06 01:20:00,1.0,1.8887,0.0140,386.59,10.91,79.1,41.0,138.11,28.25,24.61,36.33,0.04,-272.73,-272.74,-51,525,-928,22.7,3.0,-24.7,22.8,3.1,-24.2,5.73,2.28,-27.1,27.6
2012-04-06 01:21:00,1.0,1.8726,0.0010,374.11,0.21,83.5,37.3,138.11,28.26,24.61,36.34,0.04,-272.74,-272.74,-51,524,-928,22.7,3.0,-24.7,22.8,3.1,-24.3,5.73,2.41,-27.0,27.6
2012-04-06 01:22:00,1.0,1.8725,0.0011,374.10,0.22,94.8,39.9,138.11,28.27,24.61,36.34,0.04,-272.73,-272.74,-51,523,-928,22.7,3.0,-24.7,22.8,3.1,-24.3,5.73,2.42,-27.0,27.7
2012-04-06 01:23:00,1.0,1.8726,0.0012,374.16,0.21,91.2,32.7,138.11,28.28,24.61,36.34,0.04,-272.73,-272.74,-51,523,-928,22.7,3.0,-24.6,22.9,3.1,-24.2,5.73,2.28,-26.9,27.8
2012-04-06 01:24:00,1.0,1.8731,0.0011,374.18,0.18,92.8,35.9,138.11,28.29,24.61,36.34,0.04,-272.74,-272.73,-51,524,-928,22.8,3.0,-24.6,22.9,3.1,-24.2,5.73,2.42,-26.8,27.9
2012-04-06 01:25:00,0.0,1.8928,0.0139,389.66,10.87,94.6,46.8,138.11,28.30,24.61,36.34,0.04,-272.74,-272.74,-51,552,-928,22.8,3.0,-24.6,23.0,3.1,-24.1,5.73,2.47,-26.8,28.0
2012-04-06 01:26:00,0.0,1.9088,0.0010,402.37,0.23,89.1,42.0,138.11,28.31,24.62,36.32,0.04,-272.74,-272.73,-51,553,-928,22.9,3.0,-24.6,23.0,3.1,-24.1,5.73,2.29,-26.7,28.1
2012-04-06 01:27:00,0.0,1.9096,0.0010,402.39,0.22,98.4,36.5,138.10,28.33,24.61,36.32,0.04,-272.73,-272.74,-51,553,-928,22.9,3.0,-24.5,23.0,3.1,-24.1,5.73,2.42,-26.7,28.2
2012-04-06 01:28:00,0.0,1.9092,0.0011,402.31,0.21,95.6,42.3,138.10,28.34,24.62,36.33,0.04,-272.74,-272.74,-51,553,-928,22.9,3.0,-24.5,23.1,3.1,-24.1,5.73,2.42,-26.7,28.2
2012-04-06 01:29:00,0.0,1.9094,0.0011,402.28,0.19,104.1,35.7,138.10,28.35,24.61,36.33,0.04,-272.74,-272.73,-51,553,-928,23.0,3.0,-24.6,23.1,3.1,-24.1,5.73,2.29,-26.6,28.3
2012-04-06 01:30:00,0.0,1.9096,0.0009,402.40,0.23,103.8,46.4,138.10,28.36,24.61,36.33,0.04,-272.73,-272.73,-51,553,-928,23.1,3.0,-24.5,23.1,3.1,-24.1,5.73,2.41,-26.6,28.3
2012-04-06 01:31:00,0.0,1.9086,0.0011,402.34,0.26,98.0,38.4,138.10,28.37,24.62,36.33,0.04,-272.74,-272.74,-51,554,-929,23.1,3.0,-24.5,23.2,3.1,-24.0,5.73,2.42,-26.5,28.2
2012-04-06 01:32:00,0.0,1.9102,0.0012,402.30,0.22,107.8,47.9,138.10,28.38,24.61,36.33,0.04,-272.73,-272.74,-52,554,-929,23.1,3.0,-24.6,23.2,3.1,-24.2,5.73,2.29,-26.5,27.5
2012-04-06 01:33:00,0.0,1.9103,0.0012,402.38,0.27,100.1,37.7,138.11,28.38,24.62,36.32,0.04,-272.74,-272.73,-51,555,-929,23.1,3.0,-24.5,23.2,3.1,-24.2,5.73,2.39,-26.7,26.9
2012-04-06 01:34:00,0.0,1.9097,0.0010,402.33,0.19,71.6,36.1,138.11,28.38,24.62,36.33,0.04,-272.74,-272.74,-51,554,-929,23.0,3.0,-24.6,23.1,3.1,-24.1,5.73,2.47,-26.9,26.7
2012-04-06 01:35:00,0.0,1.9101,0.0013,402.39,0.22,70.2,39.8,138.12,28.37,24.61,36.32,0.04,-272.74,-272.74,-51,555,-929,23.0,3.0,-24.6,23.0,3.1,-24.2,5.73,2.38,-27.1,26.3
2012-04-06 01:36:00,0.0,1.9108,0.0012,402.31,0.18,44.2,35.4,138.13,28.36,24.62,36.33,0.04,-272.74,-272.74,-52,554,-929,23.0,3.0,-24.6,23.0,3.1,-24.2,5.73,2.33,-27.3,25.9
2012-04-06 01:37:00,0.0,1.9106,0.0009,402.36,0.29,43.2,34.8,138.13,28.34,24.61,36.32,0.04,-272.73,-272.74,-52,554,-929,22.9,3.0,-24.6,22.9,3.1,-24.2,5.73,2.33,-27.5,25.7
2012-04-06 01:38:00,0.0,1.9099,0.0011,402.41,0.18,34.5,33.1,138.14,28.32,24.62,36.32,0.04,-272.74,-272.74,-52,554,-929,22.9,3.0,-24.6,22.8,3.1,-24.3,5.73,2.35,-27.5,25.6
2012-04-06 01:39:00,0.0,1.9096,0.0009,402.52,0.22,17.6,25.9,138.14,28.30,24.61,36.31,0.04,-272.74,-272.74,-52,554,-929,22.8,3.0,-24.6,22.8,3.1,-24.3,5.73,2.38,-27.7,25.5
2012-04-06 01:40:00,0.0,1.9090,0.0012,402.52,0.23,19.2,25.1,138.15,28.27,24.61,36.31,0.04,-272.73,-272.74,-52,554,-929,22.8,3.0,-24.6,22.7,3.1,-24.3,5.73,2.41,-27.8,25.3
2012-04-06 01:41:00,0.0,1.9082,0.0011,402.46,0.22,14.3,23.6,138.15,28.25,24.61,36.31,0.04,-272.74,-272.74,-52,553,-929,22.7,3.0,-24.5,22.7,3.1,-24.3,5.73,2.47,-28.0,25.7
2012-04-06 01:42:00,0.0,1.9080,0.0011,402.37,0.21,9.7,18.5,138.15,28.22,24.61,36.32,0.04,-272.73,-272.73,-52,553,-929,22.7,3.0,-24.5,22.7,3.2,-24.1,5.73,2.38,-27.9,26.2
2012-04-06 01:43:00,0.0,1.9083,0.0013,402.41,0.20,14.8,21.4,138.14,28.21,24.61,36.31,0.04,-272.74,-272.73,-52,553,-929,22.7,3.1,-24.5,22.7,3.2,-24.1,5.73,2.32,-27.9,26.6
2012-04-06 01:44:00,0.0,1.9085,0.0012,402.44,0.21,22.1,27.3,138.14,28.20,24.61,36.31,0.04,-272.74,-272.74,-52,553,-928,22.7,3.1,-24.4,22.7,3.2,-24.0,5.73,2.44,-27.8,26.8
2012-04-06 01:45:00,0.0,1.9091,0.0012,402.35,0.24,17.5,24.8,138.13,28.19,24.61,36.32,0.04,-272.74,-272.74,-51,553,-928,22.7,3.1,-24.4,22.7,3.2,-23.9,5.73,2.36,-27.7,27.0
2012-04-06 01:46:00,0.0,1.9093,0.0011,402.34,0.22,22.5,28.7,138.13,28.18,24.61,36.31,0.04,-272.74,-272.74,-52,553,-928,22.7,3.1,-24.4,22.7,3.2,-24.0,5.73,2.33,-27.6,27.1
2012-04-06 01:47:00,0.0,1.9103,0.0009,402.26,0.22,37.1,33.2,138.13,28.18,24.61,36.31,0.04,-272.73,-272.74,-51,552,-928,22.7,3.1,-24.3,22.7,3.2,-23.9,5.73,2.47,-27.6,27.2
2012-04-06 01:48:00,0.0,1.9098,0.0010,402.24,0.16,46.8,35.2,138.13,28.19,24.61,36.32,0.04,-272.74,-272.74,-52,553,-928,22.7,3.1,-24.4,22.8,3.2,-23.9,5.73,2.28,-27.5,27.3
2012-04-06 01:49:00,0.0,1.9096,0.0011,402.32,0.21,38.7,34.2,138.12,28.19,24.61,36.31,0.04,-272.74,-272.74,-52,553,-928,22.7,3.1,-24.4,22.8,3.2,-23.9,5.73,2.40,-27.4,27.4
2012-04-06 01:50:00,0.0,1.9095,0.0010,402.22,0.25,44.2,34.2,138.12,28.20,24.61,36.33,0.04,-272.74,-272.74,-52,553,-928,22.7,3.1,-24.3,22.8,3.2,-23.9,5.73,2.43,-27.3,27.4
2012-04-06 01:51:00,0.0,1.9091,0.0011,402.23,0.21,59.8,42.7,138.12,28.21,24.61,36.32,0.04,-272.73,-272.74,-52,552,-928,22.7,3.1,-24.4,22.8,3.2,-24.0,5.73,2.28,-27.3,27.5
2012-04-06 01:52:00,0.0,1.9090,0.0008,402.23,0.21,58.1,39.8,138.12,28.22,24.61,36.32,0.04,-272.74,-272.74,-51,552,-928,22.7,3.1,-24.4,22.9,3.2,-24.0,5.73,2.43,-27.2,27.6
2012-04-06 01:53:00,0.0,1.9093,0.0009,402.15,0.23,54.6,37.9,138.12,28.23,24.61,36.33,0.04,-272.74,-272.73,-52,553,-928,22.8,3.1,-24.4,22.9,3.2,-23.9,5.73,2.41,-27.1,27.6
2012-04-06 01:54:00,0.0,1.9091,0.0013,402.18,0.24,65.3,37.2,138.11,28.24,24.61,36.32,0.04,-272.74,-272.74,-51,552,-928,22.8,3.1,-24.4,22.9,3.2,-23.9,5.73,2.29,-27.1,27.6
2012-04-06 01:55:00,0.0,1.9090,0.0011,402.23,0.22,62.8,41.4,138.11,28.25,24.61,36.32,0.04,-272.74,-272.74,-51,553,-928,22.8,3.1,-24.4,22.9,3.2,-23.9,5.73,2.43,-27.0,27.7
2012-04-06 01:56:00,0.0,1.9084,0.0011,402.20,0.22,75.0,39.1,138.11,28.26,24.61,36.32,0.04,-272.74,-272.74,-52,553,-928,22.8,3.1,-24.3,22.9,3.2,-23.8,5.73,2.40,-27.0,27.7
2012-04-06 01:57:00,0.0,1.9083,0.0011,402.18,0.23,71.1,39.0,138.11,28.27,24.61,36.33,0.04,-272.74,-272.74,-51,553,-928,22.9,3.1,-24.2,22.9,3.2,-23.8,5.73,2.29,-26.9,27.8
2012-04-06 01:58:00,0.0,1.9091,0.0012,402.16,0.22,76.8,36.4,138.11,28.28,24.61,36.33,0.04,-272.74,-272.74,-51,553,-928,22.9,3.1,-24.2,23.0,3.2,-23.7,5.73,2.43,-26.9,27.9
2012-04-06 01:59:00,0.0,1.9098,0.0010,402.26,0.23,89.7,41.1,138.11,28.29,24.61,36.33,0.04,-272.74,-272.74,-51,553,-928,22.9,3.1,-24.1,23.0,3.2,-23.7,5.73,2.41,-26.8,28.0
2012-04-06 02:00:00,0.0,1.9109,0.0015,402.19,0.19,88.3,39.2,138.11,28.30,24.61,36.33,0.04,-272.73,-272.73,-51,553,-928,22.9,3.1,-24.0,23.0,3.2,-23.6,5.73,2.29,-26.8,27.9
2012-04-06 02:01:00,0.0,1.9093,0.0013,402.23,0.18,96.7,38.8,138.10,28.31,24.61,36.33,0.04,-272.73,-272.74,-52,553,-928,22.9,3.1,-24.0,23.1,3.2,-23.6,5.73,2.41,-26.7,27.9
2012-04-06 02:02:00,0.0,1.9083,0.0010,402.26,0.27,97.7,43.7,138.10,28.33,24.61,36.33,0.04,-272.74,-272.74,-51,553,-928,23.0,3.1,-24.0,23.1,3.2,-23.6,5.73,2.42,-26.7,27.9
2012-04-06 02:03:00,0.0,1.9084,0.0012,402.36,0.23,94.5,43.6,138.10,28.34,24.62,36.33,0.04,-272.74,-272.74,-51,554,-928,23.0,3.1,-24.0,23.1,3.2,-23.5,5.73,2.29,-26.6,28.0
2012-04-06 02:04:00,0.0,1.9112,0.0013,402.34,0.23,115.7,38.5,138.10,28.35,24.61,36.33,0.04,-272.74,-272.74,-52,554,-928,23.0,3.1,-24.0,23.1,3.3,-23.5,5.73,2.39,-26.5,28.0
2012-04-06 02:05:00,0.0,1.9117,0.0010,402.41,0.22,109.1,42.1,138.10,28.36,24.62,36.33,0.04,-272.74,-272.74,-51,554,-928,23.1,3.2,-23.9,23.2,3.3,-23.4,5.73,2.44,-26.5,28.1
2012-04-06 02:06:00,0.0,1.9099,0.0012,402.34,0.21,110.2,41.6,138.10,28.38,24.62,36.33,0.04,-272.74,-272.74,-52,554,-928,23.1,3.1,-23.9,23.2,3.2,-23.5,5.73,2.28,-26.4,27.8
2012-04-06 02:07:00,0.0,1.9098,0.0010,402.34,0.22,100.8,38.6,138.10,28.38,24.62,36.33,0.04,-272.74,-272.74,-51,554,-928,23.1,3.1,-23.9,23.2,3.2,-23.5,5.73,2.48,-26.5,27.3
2012-04-06 02:08:00,0.0,1.9106,0.0010,402.25,0.20,87.4,37.1,138.11,28.39,24.62,36.33,0.04,-272.74,-272.74,-52,555,-929,23.1,3.1,-24.0,23.1,3.2,-23.6,5.73,2.29,-26.7,26.8
2012-04-06 02:09:00,0.0,1.9109,0.0010,402.45,0.21,79.9,40.4,138.11,28.39,24.62,36.32,0.04,-272.74,-272.73,-52,555,-929,23.0,3.1,-23.9,23.1,3.3,-23.5,5.73,2.35,-26.8,26.4
2012-04-06 02:10:00,0.0,1.9116,0.0008,402.44,0.25,73.1,38.5,138.12,28.38,24.61,36.31,0.04,-272.74,-272.73,-52,555,-929,23.0,3.2,-23.9,23.0,3.3,-23.5,5.73,2.45,-27.0,26.1
2012-04-06 02:11:00,0.0,1.9108,0.0010,402.40,0.18,50.9,36.1,138.13,28.37,24.62,36.32,0.04,-272.74,-272.74,-52,554,-929,23.0,3.2,-23.8,23.0,3.3,-23.4,5.73,2.44,-27.1,26.0
2012-04-06 02:12:00,0.0,1.9116,0.0009,402.41,0.23,44.8,38.4,138.13,28.35,24.61,36.32,0.04,-272.74,-272.74,-52,554,-929,22.9,3.2,-23.7,22.9,3.3,-23.4,5.73,2.38,-27.3,25.8
2012-04-06 02:13:00,0.0,1.9117,0.0011,402.49,0.23,40.8,34.9,138.13,28.33,24.61,36.32,0.04,-272.74,-272.73,-52,554,-929,22.9,3.3,-23.6,22.8,3.4,-23.3,5.73,2.33,-27.4,25.7
2012-04-06 02:14:00,0.0,1.9110,0.0010,402.43,0.25,26.3,29.3,138.14,28.31,24.61,36.32,0.04,-272.73,-272.74,-52,554,-929,22.8,3.3,-23.6,22.8,3.4,-23.2,5.73,2.32,-27.5,25.6
2012-04-06 02:15:00,0.0,1.9135,0.0019,402.71,0.36,15.8,26.8,138.14,28.29,24.61,36.32,0.04,-272.74,-272.74,-52,553,-929,22.8,3.3,-23.5,22.7,3.4,-23.2,5.73,2.35,-27.6,25.4
2012-04-06 02:16:00,0.0,1.9115,0.0015,402.59,0.23,24.2,27.4,138.15,28.26,24.61,36.31,0.04,-272.74,-272.74,-52,553,-929,22.7,3.3,-23.5,22.7,3.4,-23.2,5.73,2.43,-27.7,25.8
2012-04-06 02:17:00,0.0,1.9107,0.0022,402.66,0.22,19.3,29.2,138.14,28.24,24.61,36.31,0.04,-272.73,-272.73,-52,553,-928,22.7,3.3,-23.6,22.7,3.4,-23.2,5.73,2.45,-27.7,26.3